JAS-2 (FO-29) (24278 NORAD) Tracking and Keplerian Element Data

This shows tracking and keplerian element data for the satellite.

Feedback or suggestion? Click here.




ElementValue
Catalog24278
NameJAS-2 (FO-29)
Epoch Orbit12458
Epoch Day145.88739309
Epoch Year2019
RAAN302.5304
Inclination98.5339
Eccentricity0.034945
Argument of Perigee301.8523
Mean Anonmoly54.9044
Mean Motion13.53091191
Decay Rate-3.5E-07
L11 24278U 96046B 19145.88739309 -.00000035 00000-0 30760-5 0 9995
L22 24278 98.5339 302.5304 0349450 301.8523 54.9044 13.53091191124585

Live tracking and technical data element details for JAS-2 (FO-29) (NORAD 24278). JAS-2 (FO-29) can be tracked NOW for your location showing map with azimuth and elevation plus other details from your city location.

Track the satellite on the map from your city or location and see movement details for azimuth, elevation, latitude, longitude, range, height, and movement on the map or in text.







IsCatalogInMostPopularTable: catalog: 24278, numindb: 182
Update: records affected: 1



GetName: 24278 JAS-2 (FO-29)

Hit Count: updated at: Sun, 26 May 2019 19:19:03 GMT